Pittsburgh, PA

8:43 AM EST on February 08, 2016 (GMT -0500)
Pittsburgh International

Weather History for KPIT - January, 2014

Change the Weather History Date:

Saturday, January 11, 2014

  Actual Average Record
Temperature  
Mean Temperature 46 °F 28 °F  
Max Temperature 54 °F 35 °F 68 °F (1890)
Min Temperature 37 °F 21 °F -8 °F (1982)
Degree Days  
Heating Degree Days 19 37  
Month to date heating degree days 454 403  
Since 1 July heating degree days 2571 2578  
Cooling Degree Days 0 0  
Month to date cooling degree days 0 0  
Year to date cooling degree days 0 0  
Moisture  
Dew Point 43 °F    
Average Humidity 83    
Maximum Humidity 100    
Minimum Humidity 65    
Precipitation  
Precipitation 0.50 in 0.09 in 0.78 in (2005)
Month to date precipitation 1.26 0.97  
Year to date precipitation 1.26 0.97  
Snow  
Snow T in 0.40 in 5.00 in (1922)
Month to date snowfall 6.3 3.8  
Since 1 July snowfall 30.7 14.5  
Snow Depth 0.00 in    
Sea Level Pressure  
Sea Level Pressure 29.57 in    
Wind  
Wind Speed 11 mph (SW)    
Max Wind Speed 28 mph    
Max Gust Speed 44 mph    
Visibility 9 miles    
Events Rain    
T = Trace of Precipitation, MM = Missing Value Source: NWS Daily Summary

Daily Weather History Graph

Daily Weather History Graph

Search for Another Location

Airport or City:

Trip Planner

Search our weather history database for the weather conditions in past years. The results will help you decide how hot, cold, wet, or windy it might be!

Date:

Astronomy

Jan. 11, 2014 Rise Set
Actual Time 7:43 AM EST 5:14 PM EST
Civil Twilight 7:13 AM EST 5:44 PM EST
Nautical Twilight 6:39 AM EST 6:18 PM EST
Astronomical Twilight 6:06 AM EST 6:51 PM EST
Moon 1:57 PM EST (1/11) 3:46 AM EST (1/11)
Length of Visible Light 10h 31m
Length of Day
9h 30m
Waxing Gibbous, 83% of the Moon is Illuminated
Jan 11
Waxing Gibbous
Jan 15
Full
Jan 24
Last Quarter
Jan 30
New
Feb 6
First Quarter

Hourly Weather History & Observations

Time (EST) Temp. Windchill Dew Point Humidity Pressure Visibility Wind Dir Wind Speed Gust Speed Precip Events Conditions
12:51 AM 44.1 °F 42.5 °F 41.0 °F 89% 29.86 in 10.0 mi SE 3.5 mph - N/A   Overcast
1:51 AM 46.0 °F 42.5 °F 42.1 °F 86% 29.82 in 10.0 mi SE 6.9 mph - N/A   Overcast
2:51 AM 46.9 °F - 43.0 °F 86% 29.78 in 10.0 mi SE 5.8 mph - N/A   Overcast
3:51 AM 48.9 °F - 45.0 °F 86% 29.73 in 10.0 mi SSE 6.9 mph - N/A   Mostly Cloudy
4:51 AM 51.1 °F - 46.0 °F 83% 29.68 in 10.0 mi South 4.6 mph - N/A   Overcast
5:51 AM 52.0 °F - 46.9 °F 83% 29.63 in 10.0 mi SSE 9.2 mph - N/A   Overcast
6:51 AM 51.1 °F - 46.9 °F 86% 29.61 in 10.0 mi NW 8.1 mph - N/A   Overcast
7:35 AM 50.0 °F - 46.4 °F 87% 29.57 in 5.0 mi NW 9.2 mph - 0.01 in Rain Rain
7:51 AM 50.0 °F - 48.0 °F 93% 29.62 in 2.0 mi NW 8.1 mph - 0.11 in Rain Rain
8:17 AM 48.2 °F - 48.2 °F 100% 29.58 in 4.0 mi Calm Calm - 0.11 in Rain Light Rain
8:51 AM 48.9 °F - 48.0 °F 97% 29.61 in 2.5 mi Calm Calm - 0.17 in Rain Light Rain
9:51 AM 50.0 °F - 48.9 °F 96% 29.60 in 2.5 mi SSW 4.6 mph - 0.10 in Rain Light Rain
10:40 AM 51.8 °F - 50.0 °F 94% 29.51 in 4.0 mi SSE 9.2 mph - 0.08 in Rain Light Rain
10:51 AM 51.1 °F - 50.0 °F 96% 29.54 in 10.0 mi South 6.9 mph - 0.09 in Rain Light Rain
11:51 AM 52.0 °F - 48.9 °F 89% 29.46 in 10.0 mi SSE 13.8 mph 18.4 mph 0.00 in Rain Light Rain
12:33 PM 51.8 °F - 50.0 °F 94% 29.43 in 10.0 mi SSW 11.5 mph - 0.01 in   Overcast
12:51 PM 53.1 °F - 50.0 °F 89% 29.44 in 10.0 mi SSW 12.7 mph 23.0 mph 0.01 in   Overcast
1:51 PM 54.0 °F - 48.9 °F 83% 29.40 in 10.0 mi SSW 17.3 mph 24.2 mph N/A   Overcast
2:38 PM 53.6 °F - 48.2 °F 82% 29.38 in 10.0 mi SW 15.0 mph 24.2 mph N/A   Mostly Cloudy
2:51 PM 54.0 °F - 48.0 °F 80% 29.40 in 10.0 mi SW 17.3 mph 25.3 mph N/A   Mostly Cloudy
3:51 PM 54.0 °F - 45.0 °F 72% 29.41 in 10.0 mi WSW 13.8 mph 24.2 mph N/A   Mostly Cloudy
4:38 PM 51.8 °F - 44.6 °F 76% 29.39 in 7.0 mi West 24.2 mph 43.7 mph 0.00 in Rain Light Rain
4:51 PM 48.0 °F - 43.0 °F 83% 29.44 in 7.0 mi West 18.4 mph 40.3 mph 0.00 in Rain Light Rain
5:51 PM 46.0 °F 39.0 °F 37.9 °F 73% 29.46 in 10.0 mi West 17.3 mph 33.4 mph 0.02 in   Overcast
6:51 PM 44.1 °F 38.1 °F 35.1 °F 71% 29.50 in 10.0 mi West 11.5 mph 26.5 mph N/A   Mostly Cloudy
7:51 PM 41.0 °F 30.9 °F 30.0 °F 65% 29.56 in 10.0 mi West 24.2 mph 36.8 mph N/A   Overcast
8:37 PM 41.0 °F 33.9 °F 30.2 °F 65% 29.55 in 10.0 mi West 12.7 mph 24.2 mph N/A   Overcast
8:51 PM 39.9 °F 33.4 °F 30.9 °F 70% 29.59 in 10.0 mi West 10.4 mph - N/A   Overcast
9:51 PM 39.0 °F 29.3 °F 30.9 °F 73% 29.63 in 10.0 mi West 19.6 mph 32.2 mph N/A   Overcast
10:51 PM 37.0 °F 27.0 °F 30.9 °F 79% 29.68 in 10.0 mi WNW 18.4 mph 24.2 mph N/A   Overcast
11:51 PM 37.0 °F 29.3 °F 30.9 °F 79% 29.70 in 10.0 mi West 11.5 mph - 0.00 in   Light Drizzle